Location: Cosy Dell
(34.2789°N, 117.4537°W)
Time: 12:19:40
(UTC+00:00)

CZ-2D R/B - Pass Details

Date: 14 July 2020
Orbit: 792 x 844 km, 98.7° (Epoch: 09 August)

Event Time Altitude Azimuth Distance (km) Brightness Sun altitude
Rises 10:49:49 0° 350° (N) 3,352 5.8 -20.5°
Reaches altitude 10° 10:53:17 10° 327° (NNW) 2,427 4.7 -20.0°
Maximum altitude 10:55:59 14° 296° (WNW) 2,149 4.1 -19.6°
Enters shadow 10:57:02 13° 283° (WNW) 2,196 4.1 -19.5°
